FW5763 Weather Reports


Display with metric or nautical units.
time (UTC)temp
F
wind
direction
speed
MPH
gust
MPH
rain 1hr
in
rain 24hr
in
rain mn
in
humidity
%
barometer
mb
20210616063205 58 0 0.0 1.0 0.00 0.00 0.00 79 1017.5
20210616062608 58 0 0.0 0.0 0.00 0.00 0.00 79 1017.4
20210616062051 58 0 0.0 0.0 0.00 0.00 0.00 78 1017.4
20210616061637 58 0 0.0 1.0 0.00 0.00 0.00 78 1017.5
20210616061051 58 0 0.0 1.0 0.00 0.00 0.00 77 1017.4
20210616060551 58 0 0.0 1.0 0.00 0.00 0.00 77 1017.5
20210616060218 59 170 0.0 1.0 0.00 0.00 0.00 77 1017.3
20210616055548 59 0 0.0 1.0 0.00 0.00 0.00 76 1017.3
20210616055048 59 0 0.0 2.0 0.00 0.00 0.00 75 1017.4
20210616054732 59 0 0.0 2.0 0.00 0.00 0.00 75 1017.4
20210616054054 59 0 0.0 2.0 0.00 0.00 0.00 75 1017.3
20210616053555 59 0 0.0 3.0 0.00 0.00 0.00 74 1017.3
20210616053147 60 0 1.0 3.0 0.00 0.00 0.00 74 1017.4
20210616052605 60 123 0.0 2.0 0.00 0.00 0.00 74 1017.3
20210616052058 60 0 0.0 2.0 0.00 0.00 0.00 73 1017.4
20210616051710 60 123 0.0 2.0 0.00 0.00 0.00 73 1017.6
20210616051111 60 123 1.0 2.0 0.00 0.00 0.00 73 1017.6
20210616050552 60 0 0.0 2.0 0.00 0.00 0.00 73 1017.7
20210616050217 61 0 0.0 2.0 0.00 0.00 0.00 73 1017.7
20210616045559 61 122 0.0 2.0 0.00 0.00 0.00 72 1017.6
20210616045053 61 122 0.0 2.0 0.00 0.00 0.00 72 1017.8
20210616044636 61 122 0.0 2.0 0.00 0.00 0.00 72 1017.7
20210616044107 61 0 0.0 0.0 0.00 0.00 0.00 71 1017.8
20210616043606 62 0 0.0 1.0 0.00 0.00 0.00 71 1017.6
20210616043108 62 0 0.0 1.0 0.00 0.00 0.00 71 1017.6
20210616042550 62 122 0.0 2.0 0.00 0.00 0.00 70 1017.6
20210616042114 62 122 0.0 2.0 0.00 0.00 0.00 70 1017.5
20210616041628 62 122 0.0 3.0 0.00 0.00 0.00 70 1017.6
20210616041052 63 0 0.0 3.0 0.00 0.00 0.00 70 1017.6
20210616040556 63 122 1.0 3.0 0.00 0.00 0.00 69 1017.6
20210616040252 63 0 0.0 1.0 0.00 0.00 0.00 68 1017.5
20210616035551 64 0 0.0 0.0 0.00 0.00 0.00 67 1017.5
20210616035052 64 0 0.0 0.0 0.00 0.00 0.00 67 1017.5
20210616034630 64 0 0.0 0.0 0.00 0.00 0.00 66 1017.4
20210616034117 64 0 0.0 0.0 0.00 0.00 0.00 66 1017.3
20210616033552 65 0 0.0 3.0 0.00 0.00 0.00 66 1017.5
20210616033216 65 0 0.0 3.0 0.00 0.00 0.00 65 1017.3
20210616032551 65 121 0.0 3.0 0.00 0.00 0.00 64 1017.3
20210616032050 66 116 0.0 3.0 0.00 0.00 0.00 63 1017.2
20210616031604 66 123 0.0 3.0 0.00 0.00 0.00 62 1017.3
20210616031058 67 117 1.0 3.0 0.00 0.00 0.00 62 1017.3
20210616030552 67 0 0.0 3.0 0.00 0.00 0.00 61 1017.1
20210616030201 67 0 0.0 4.0 0.00 0.00 0.00 61 1017.1
20210616025552 67 142 2.0 6.0 0.00 0.00 0.00 60 1017.2
20210616025051 68 123 1.0 6.0 0.00 0.00 0.00 60 1017.1
20210616024619 68 108 1.0 5.0 0.00 0.00 0.00 59 1017.0
20210616024055 69 0 0.0 5.0 0.00 0.00 0.00 59 1017.0
20210616023552 69 142 1.0 7.0 0.00 0.00 0.00 57 1017.1
20210616023420 70 137 3.0 10.0 0.00 0.00 0.00 55 1017.2
20210616022552 71 130 3.0 10.0 0.00 0.00 0.00 52 1017.1
20210616022051 72 148 5.0 9.0 0.00 0.00 0.00 49 1016.8
20210616021725 73 150 2.0 8.0 0.00 0.00 0.00 47 1016.9
20210616021051 74 160 3.0 8.0 0.00 0.00 0.00 45 1016.9
20210616020552 76 135 4.0 8.0 0.00 0.00 0.00 42 1016.8
20210616020255 77 132 3.0 8.0 0.00 0.00 0.00 39 1016.8
20210616015551 78 171 2.0 9.0 0.00 0.00 0.00 36 1016.7
20210616015057 79 153 5.0 9.0 0.00 0.00 0.00 34 1016.6
20210616014648 81 157 2.0 10.0 0.00 0.00 0.00 32 1016.7
20210616014051 84 58 4.0 10.0 0.00 0.00 0.00 27 1016.5
20210616013604 85 315 2.0 13.0 0.00 0.00 0.00 17 1016.5
20210616013226 85 271 3.0 13.0 0.00 0.00 0.00 17 1016.4
20210616012551 86 312 2.0 10.0 0.00 0.00 0.00 16 1016.5
20210616012100 86 5 2.0 10.0 0.00 0.00 0.00 16 1016.6
20210616011653 86 298 3.0 8.0 0.00 0.00 0.00 16 1016.7
20210616011055 86 344 1.0 7.0 0.00 0.00 0.00 17 1016.6
20210616010600 86 19 1.0 13.0 0.00 0.00 0.00 17 1016.7
20210616010125 86 225 5.0 13.0 0.00 0.00 0.00 16 1016.6
20210616005551 86 275 5.0 12.0 0.00 0.00 0.00 16 1016.7
20210616005059 86 265 4.0 10.0 0.00 0.00 0.00 16 1016.9
20210616004728 86 5 3.0 9.0 0.00 0.00 0.00 15 1016.8
20210616004054 86 22 3.0 10.0 0.00 0.00 0.00 14 1016.8
20210616003552 85 294 3.0 10.0 0.00 0.00 0.00 14 1016.9
20210616003214 84 254 3.0 9.0 0.00 0.00 0.00 18 1017.0
20210616002551 85 227 4.0 9.0 0.00 0.00 0.00 21 1017.1
20210616002119 84 20 3.0 8.0 0.00 0.00 0.00 17 1017.1
20210616001720 83 360 3.0 8.0 0.00 0.00 0.00 22 1017.3
20210616001051 83 123 3.0 7.0 0.00 0.00 0.00 22 1017.2
20210616000559 82 225 1.0 6.0 0.00 0.00 0.00 23 1017.3
20210616000306 81 0 3.0 6.0 0.00 0.00 0.00 25 1017.3
20210615235606 81 126 1.0 7.0 0.00 0.00 0.00 25 1017.3
20210615235050 81 0 3.0 9.0 0.00 0.00 0.00 27 1017.3
20210615234641 80 96 2.0 9.0 0.00 0.00 0.00 28 1017.4
20210615234051 81 106 4.0 9.0 0.00 0.00 0.00 28 1017.5
20210615233549 81 215 2.0 9.0 0.00 0.00 0.00 29 1017.4
20210615233113 81 94 4.0 11.0 0.00 0.00 0.00 27 1017.5
20210615232551 81 207 4.0 11.0 0.00 0.00 0.00 26 1017.4
20210615232055 82 89 2.0 10.0 0.00 0.00 0.00 27 1017.6
20210615231626 81 130 4.0 10.0 0.00 0.00 0.00 26 1017.4
20210615231048 81 155 2.0 8.0 0.00 0.00 0.00 26 1017.4
20210615230553 81 90 3.0 11.0 0.00 0.00 0.00 26 1017.4
20210615230149 80 57 4.0 11.0 0.00 0.00 0.00 25 1017.4
20210615225551 80 136 4.0 10.0 0.00 0.00 0.00 27 1017.4
20210615225048 80 144 4.0 10.0 0.00 0.00 0.00 26 1017.4
20210615224649 81 91 2.0 8.0 0.00 0.00 0.00 29 1017.6
20210615224050 82 104 4.0 8.0 0.00 0.00 0.00 27 1017.7
20210615223552 82 97 3.0 7.0 0.00 0.00 0.00 28 1017.7
20210615223236 82 0 2.0 8.0 0.00 0.00 0.00 25 1017.7
20210615222552 82 13 3.0 8.0 0.00 0.00 0.00 23 1017.8
20210615222046 84 142 2.0 8.0 0.00 0.00 0.00 23 1017.7
20210615221807 85 130 4.0 8.0 0.00 0.00 0.00 21 1017.8
20210615221049 85 202 1.0 11.0 0.00 0.00 0.00 12 1017.9
20210615220554 83 233 3.0 11.0 0.00 0.00 0.00 22 1018.0
20210615220202 82 211 3.0 9.0 0.00 0.00 0.00 23 1017.9
20210615215549 80 300 2.0 8.0 0.00 0.00 0.00 24 1017.9
20210615215053 79 71 2.0 9.0 0.00 0.00 0.00 28 1018.2
20210615214655 80 142 4.0 9.0 0.00 0.00 0.00 28 1018.2
20210615214048 80 198 3.0 8.0 0.00 0.00 0.00 28 1018.3
20210615213637 80 74 3.0 12.0 0.00 0.00 0.00 27 1018.6
20210615213144 81 126 4.0 14.0 0.00 0.00 0.00 27 1018.5
20210615212549 84 32 6.0 14.0 0.00 0.00 0.00 23 1018.8
20210615212108 84 10 4.0 16.0 0.00 0.00 0.00 11 1018.6
20210615211653 83 342 3.0 16.0 0.00 0.00 0.00 13 1018.6
20210615211049 83 352 4.0 16.0 0.00 0.00 0.00 12 1018.7
20210615210550 83 319 7.0 16.0 0.00 0.00 0.00 12 1018.8
20210615210210 83 330 3.0 11.0 0.00 0.00 0.00 13 1018.7
20210615205550 83 319 5.0 13.0 0.00 0.00 0.00 15 1018.8
20210615205051 83 331 5.0 13.0 0.00 0.00 0.00 15 1018.9
20210615204804 82 301 4.0 12.0 0.00 0.00 0.00 14 1018.9
20210615204049 82 360 3.0 13.0 0.00 0.00 0.00 16 1018.9
20210615203551 82 313 4.0 13.0 0.00 0.00 0.00 16 1018.9
20210615203334 81 265 4.0 11.0 0.00 0.00 0.00 17 1019.0
20210615202558 81 261 4.0 15.0 0.00 0.00 0.00 17 1018.9
20210615202049 80 325 8.0 15.0 0.00 0.00 0.00 17 1019.1
20210615201646 80 292 5.0 14.0 0.00 0.00 0.00 17 1019.2
20210615201106 80 277 7.0 14.0 0.00 0.00 0.00 17 1019.3
20210615200549 80 256 4.0 11.0 0.00 0.00 0.00 18 1019.5
20210615200152 80 32 3.0 12.0 0.00 0.00 0.00 20 1019.6
20210615195549 80 355 4.0 12.0 0.00 0.00 0.00 19 1019.6
20210615195049 79 360 5.0 13.0 0.00 0.00 0.00 19 1019.6
20210615194639 79 51 6.0 14.0 0.00 0.00 0.00 20 1019.5
20210615194049 77 5 6.0 14.0 0.00 0.00 0.00 21 1019.5
20210615193549 76 25 4.0 14.0 0.00 0.00 0.00 21 1019.7
20210615193227 73 301 3.0 10.0 0.00 0.00 0.00 26 1019.7
20210615192548 71 260 2.0 8.0 0.00 0.00 0.00 45 1019.8
20210615192050 71 211 3.0 6.0 0.00 0.00 0.00 45 1019.9
20210615191656 71 143 2.0 6.0 0.00 0.00 0.00 46 1020.2
20210615191048 70 138 2.0 6.0 0.00 0.00 0.00 47 1020.1
20210615190549 70 196 3.0 6.0 0.00 0.00 0.00 49 1020.1
20210615190216 69 190 3.0 9.0 0.00 0.00 0.00 48 1020.2
20210615185551 69 190 3.0 9.0 0.00 0.00 0.00 49 1020.2
20210615185049 68 146 2.0 9.0 0.00 0.00 0.00 49 1020.2
20210615184720 68 152 2.0 9.0 0.00 0.00 0.00 50 1020.1
20210615184050 67 153 4.0 9.0 0.00 0.00 0.00 52 1020.1
20210615183548 67 140 3.0 9.0 0.00 0.00 0.00 53 1020.2
20210615183158 67 130 2.0 9.0 0.00 0.00 0.00 54 1020.3
20210615182601 67 141 5.0 9.0 0.00 0.00 0.00 55 1020.3
20210615182104 67 83 2.0 9.0 0.00 0.00 0.00 56 1020.4
20210615181729 67 195 5.0 9.0 0.00 0.00 0.00 55 1020.3
20210615181111 67 171 1.0 9.0 0.00 0.00 0.00 57 1020.3
20210615180557 67 199 2.0 9.0 0.00 0.00 0.00 57 1020.3
20210615180127 67 182 3.0 9.0 0.00 0.00 0.00 58 1020.3
20210615175600 67 184 3.0 8.0 0.00 0.00 0.00 58 1020.3
20210615175133 66 134 2.0 7.0 0.00 0.00 0.00 60 1020.2
20210615174630 66 164 2.0 7.0 0.00 0.00 0.00 61 1020.2
20210615174048 65 225 3.0 8.0 0.00 0.00 0.00 63 1020.2
20210615173554 65 220 3.0 9.0 0.00 0.00 0.00 63 1020.2
20210615173200 64 198 4.0 9.0 0.00 0.00 0.00 66 1020.2
20210615172548 64 213 4.0 9.0 0.00 0.00 0.00 65 1020.3
20210615172051 64 199 3.0 8.0 0.00 0.00 0.00 66 1020.2
20210615171752 64 159 4.0 9.0 0.00 0.00 0.00 66 1020.4
20210615171052 64 174 4.0 9.0 0.00 0.00 0.00 67 1020.4
20210615170550 64 221 3.0 9.0 0.00 0.00 0.00 67 1020.3
20210615170139 63 159 2.0 9.0 0.00 0.00 0.00 69 1020.3
20210615165553 63 184 3.0 8.0 0.00 0.00 0.00 69 1020.4
20210615165100 63 129 4.0 8.0 0.00 0.00 0.00 68 1020.4
20210615164707 63 150 3.0 9.0 0.00 0.00 0.00 68 1020.4
20210615164049 63 112 1.0 9.0 0.00 0.00 0.00 70 1020.3
20210615163610 63 169 3.0 8.0 0.00 0.00 0.00 70 1020.3
20210615163118 63 186 3.0 8.0 0.00 0.00 0.00 70 1020.4
20210615162550 63 209 2.0 7.0 0.00 0.00 0.00 68 1020.5
20210615162217 63 157 3.0 7.0 0.00 0.00 0.00 69 1020.4
20210615161648 63 170 2.0 7.0 0.00 0.00 0.00 69 1020.5
20210615161053 63 153 2.0 6.0 0.00 0.00 0.00 68 1020.5
20210615160549 63 212 2.0 5.0 0.00 0.00 0.00 69 1020.4
20210615160139 63 207 1.0 4.0 0.00 0.00 0.00 69 1020.5
20210615155616 62 0 2.0 5.0 0.00 0.00 0.00 70 1020.5
20210615155110 62 0 2.0 5.0 0.00 0.00 0.00 70 1020.5
20210615154716 62 185 1.0 5.0 0.00 0.00 0.00 71 1020.5
20210615154055 61 200 0.0 4.0 0.00 0.00 0.00 71 1020.4
20210615153549 61 198 1.0 6.0 0.00 0.00 0.00 72 1020.3
20210615153204 60 138 2.0 6.0 0.00 0.00 0.00 72 1020.3
20210615152559 60 167 1.0 5.0 0.00 0.00 0.00 73 1020.5
20210615152049 60 155 2.0 5.0 0.00 0.00 0.00 75 1020.5
20210615151625 60 195 1.0 4.0 0.00 0.00 0.00 74 1020.4
20210615151053 60 248 1.0 3.0 0.00 0.00 0.00 76 1020.5
20210615150549 60 139 0.0 2.0 0.00 0.00 0.00 76 1020.5
20210615150117 59 0 0.0 2.0 0.00 0.00 0.00 77 1020.6
20210615145550 59 136 0.0 2.0 0.00 0.00 0.00 79 1020.5
20210615145049 58 136 1.0 3.0 0.00 0.00 0.00 79 1020.6
20210615144726 58 127 1.0 3.0 0.00 0.00 0.00 80 1020.7
20210615144049 57 0 0.0 0.0 0.00 0.00 0.00 81 1020.6
20210615143552 57 0 0.0 0.0 0.00 0.00 0.00 81 1020.6
20210615143338 56 0 0.0 0.0 0.00 0.00 0.00 82 1020.6
20210615142608 56 0 0.0 0.0 0.00 0.00 0.00 84 1020.6
20210615142109 55 0 0.0 0.0 0.00 0.00 0.00 84 1020.5
20210615141711 54 0 0.0 0.0 0.00 0.00 0.00 84 1020.6
20210615141049 54 0 0.0 1.0 0.00 0.00 0.00 85 1020.5
20210615140555 53 0 0.0 1.0 0.00 0.00 0.00 86 1020.5
20210615140310 52 0 0.0 0.0 0.00 0.00 0.00 86 1020.4
20210615135549 52 0 0.0 0.0 0.00 0.00 0.00 86 1020.3
20210615135100 52 0 0.0 0.0 0.00 0.00 0.00 85 1020.2
20210615134727 51 0 0.0 0.0 0.00 0.00 0.00 84 1020.2
20210615134056 51 0 0.0 0.0 0.00 0.00 0.00 83 1020.3
20210615133549 51 0 0.0 1.0 0.00 0.00 0.00 84 1020.3
20210615133128 51 0 0.0 1.0 0.00 0.00 0.00 85 1020.3
20210615132611 50 0 0.0 0.0 0.00 0.00 0.00 85 1020.4
20210615132052 50 0 0.0 0.0 0.00 0.00 0.00 84 1020.3
20210615131630 50 0 0.0 0.0 0.00 0.00 0.00 85 1020.1
20210615131050 50 0 0.0 0.0 0.00 0.00 0.00 86 1020.2
20210615130549 50 0 0.0 0.0 0.00 0.00 0.00 86 1020.0
20210615130134 50 0 0.0 0.0 0.00 0.00 0.00 85 1020.0
20210615125549 50 0 0.0 0.0 0.00 0.00 0.00 85 1019.9
20210615125049 50 0 0.0 0.0 0.00 0.00 0.00 85 1020.0
20210615124651 50 0 0.0 0.0 0.00 0.00 0.00 84 1020.0
20210615124049 50 0 0.0 0.0 0.00 0.00 0.00 84 1020.0
20210615123633 50 0 0.0 0.0 0.00 0.00 0.00 84 1020.0
20210615123134 50 0 0.0 0.0 0.00 0.00 0.00 84 1020.1
20210615122547 50 0 0.0 0.0 0.00 0.00 0.00 84 1019.9
20210615122058 50 0 0.0 0.0 0.00 0.00 0.00 84 1019.9
20210615121650 50 0 0.0 0.0 0.00 0.00 0.00 84 1020.0
20210615121049 50 0 0.0 0.0 0.00 0.00 0.00 85 1019.9
20210615120553 50 0 0.0 0.0 0.00 0.00 0.00 85 1019.9
20210615120159 50 0 0.0 0.0 0.00 0.00 0.00 85 1020.0
20210615115548 50 0 0.0 0.0 0.00 0.00 0.00 84 1019.9
20210615115048 50 0 0.0 0.0 0.00 0.00 0.00 84 1019.9
20210615114639 50 0 0.0 0.0 0.00 0.00 0.00 83 1019.8
20210615114048 51 0 0.0 0.0 0.00 0.00 0.00 84 1019.8
20210615113548 51 0 0.0 0.0 0.00 0.00 0.00 84 1019.7
20210615113115 51 0 0.0 0.0 0.00 0.00 0.00 84 1019.8
20210615112556 51 0 0.0 0.0 0.00 0.00 0.00 84 1019.8
20210615112047 51 0 0.0 0.0 0.00 0.00 0.00 85 1019.8
20210615111655 51 0 0.0 0.0 0.00 0.00 0.00 85 1019.7
20210615111052 51 0 0.0 0.0 0.00 0.00 0.00 85 1019.6
20210615110549 51 0 0.0 0.0 0.00 0.00 0.00 85 1019.6
20210615110158 51 0 0.0 0.0 0.00 0.00 0.00 86 1019.5
20210615105558 51 0 0.0 0.0 0.00 0.00 0.00 86 1019.5
20210615105049 51 0 0.0 0.0 0.00 0.00 0.00 85 1019.5
20210615104627 52 0 0.0 0.0 0.00 0.00 0.00 85 1019.4
20210615104048 52 0 0.0 0.0 0.00 0.00 0.00 85 1019.4
20210615103550 52 0 0.0 0.0 0.00 0.00 0.00 84 1019.5
20210615103204 52 0 0.0 0.0 0.00 0.00 0.00 84 1019.3
20210615102548 52 0 0.0 0.0 0.00 0.00 0.00 83 1019.4
20210615102053 52 0 0.0 0.0 0.00 0.00 0.00 83 1019.4
20210615101648 53 0 0.0 1.0 0.00 0.00 0.00 83 1019.2
20210615101048 53 0 0.0 1.0 0.00 0.00 0.00 83 1019.2
20210615100605 53 0 0.0 0.0 0.00 0.00 0.00 83 1019.3
20210615100144 53 0 0.0 1.0 0.00 0.00 0.00 84 1019.2
20210615095550 54 0 0.0 1.0 0.00 0.00 0.00 85 1019.2
20210615095049 54 0 0.0 1.0 0.00 0.00 0.00 85 1019.2
20210615094627 54 0 0.0 0.0 0.00 0.00 0.00 85 1019.3
20210615094049 54 0 0.0 0.0 0.00 0.00 0.00 84 1019.3
20210615093607 54 0 0.0 0.0 0.00 0.00 0.00 84 1019.3
20210615093131 55 0 0.0 0.0 0.00 0.00 0.00 83 1019.3
20210615092553 55 0 0.0 0.0 0.00 0.00 0.00 84 1019.3
20210615092053 55 0 0.0 0.0 0.00 0.00 0.00 81 1019.4
20210615091721 55 0 0.0 0.0 0.00 0.00 0.00 79 1019.4
20210615091057 56 0 0.0 1.0 0.00 0.00 0.00 78 1019.3
20210615090607 56 0 0.0 1.0 0.00 0.00 0.00 77 1019.3
20210615090405 56 0 0.0 2.0 0.00 0.00 0.00 76 1019.2
20210615085550 56 0 0.0 4.0 0.00 0.00 0.00 76 1019.3
20210615085050 56 0 1.0 4.0 0.00 0.00 0.00 76 1019.4
20210615084714 56 352 1.0 3.0 0.00 0.00 0.00 77 1019.3
20210615084048 56 284 0.0 0.0 0.00 0.00 0.00 77 1019.2
20210615083548 57 0 0.0 3.0 0.00 0.00 0.00 77 1019.4
20210615083147 57 0 1.0 4.0 0.00 0.00 0.00 77 1019.2
20210615082550 57 283 1.0 4.0 0.00 0.00 0.00 77 1019.2
20210615082049 57 284 1.0 5.0 0.00 0.00 0.00 77 1019.1
20210615081741 57 288 2.0 5.0 0.00 0.00 0.00 77 1019.2
20210615081106 56 281 1.0 4.0 0.00 0.00 0.00 78 1019.2
20210615080556 56 281 1.0 4.0 0.00 0.00 0.00 78 1019.2
20210615080305 56 282 1.0 6.0 0.00 0.00 0.00 78 1019.2
20210615075552 56 277 2.0 6.0 0.00 0.00 0.00 79 1019.3
20210615075102 56 281 2.0 6.0 0.00 0.00 0.00 79 1019.3
20210615074642 56 287 1.0 4.0 0.00 0.00 0.00 79 1019.3
20210615074048 56 287 1.0 3.0 0.00 0.00 0.00 79 1019.3
20210615073548 56 288 0.0 3.0 0.00 0.00 0.00 81 1019.2
20210615073216 56 0 0.0 0.0 0.00 0.00 0.00 82 1019.3
20210615072554 56 0 0.0 0.0 0.00 0.00 0.00 82 1019.2
20210615072050 56 0 0.0 0.0 0.00 0.00 0.00 81 1019.2
20210615071704 57 0 0.0 1.0 0.00 0.00 0.00 80 1019.2
20210615071053 57 0 0.0 1.0 0.00 0.00 0.00 78 1019.2
20210615070600 57 0 0.0 3.0 0.00 0.00 0.00 78 1019.2
20210615070245 57 0 0.0 3.0 0.00 0.00 0.00 78 1019.2
20210615065606 56 286 0.0 3.0 0.00 0.00 0.00 81 1019.2
20210615065049 56 0 0.0 0.0 0.00 0.00 0.00 82 1019.3
20210615064629 56 0 0.0 0.0 0.00 0.00 0.00 82 1019.3
20210615064053 57 0 0.0 0.0 0.00 0.00 0.00 82 1019.3
20210615063557 57 0 0.0 0.0 0.00 0.00 0.00 82 1019.1